When you browse on this site, cookies collect data to enhance your experience and personalize the content and advertising you see.
Visit our Privacy Policy to learn more. By continuing to use the site, you agree to this use of cookies and data.
  • In France
  • List of Countries
  • For 7 days
  • Water Temperature
  • Weather Map
  • Weather Widgets
  • user-avatar
    Login

    Hourly Weather Brisbane

    Today, 13 December, Friday

    Time Temperature Precipitation Wind Pressure Humidity
    00:00 +24°C° 0 mm 2 mps 757 mmHg 81%
    01:00 +24°C° 0 mm 1 mps 756 mmHg 79%
    02:00 +24°C° 0 mm 1 mps 756 mmHg 78%
    03:00 +24°C° 0 mm 1 mps 756 mmHg 78%
    04:00 +23°C° 0 mm 1 mps 756 mmHg 77%
    05:00 +25°C° 0 mm 1 mps 756 mmHg 72%
    06:00 +26°C° 0 mm 1 mps 757 mmHg 67%
    07:00 +28°C° 0 mm 1 mps 757 mmHg 62%
    08:00 +29°C° 0 mm 1 mps 757 mmHg 57%
    09:00 +31°C° 0 mm 2 mps 757 mmHg 52%
    10:00 +33°C° 0 mm 4 mps 756 mmHg 51%
    11:00 +32°C° 0.6 mm 4 mps 756 mmHg 55%
    12:00 +32°C° 0.6 mm 4 mps 756 mmHg 58%
    13:00 +32°C° 0.6 mm 4 mps 755 mmHg 61%
    14:00 +30°C° 0.4 mm 4 mps 755 mmHg 62%
    15:00 +30°C° 0.4 mm 4 mps 755 mmHg 64%
    16:00 +29°C° 0 mm 5 mps 754 mmHg 66%
    17:00 +28°C° 0.4 mm 4 mps 755 mmHg 71%
    18:00 +27°C° 0.4 mm 4 mps 755 mmHg 75%
    19:00 +26°C° 0.4 mm 3 mps 756 mmHg 80%
    20:00 +26°C° 0.1 mm 3 mps 757 mmHg 81%
    21:00 +26°C° 0.1 mm 2 mps 757 mmHg 81%
    22:00 +25°C° 0.1 mm 2 mps 757 mmHg 82%
    23:00 +25°C° 0.2 mm 2 mps 757 mmHg 83%

    Tomorrow, 14 December, Saturday

    Time Temperature Precipitation Wind Pressure Humidity
    00:00 +25°C° 0.2 mm 1 mps 757 mmHg 85%
    01:00 +24°C° 0.2 mm 1 mps 757 mmHg 86%
    02:00 +24°C° 0.2 mm 1 mps 756 mmHg 87%
    03:00 +24°C° 0.2 mm 1 mps 756 mmHg 88%
    04:00 +22°C° 0.2 mm 0 mps 756 mmHg 89%
    05:00 +25°C° 0.1 mm 1 mps 756 mmHg 84%
    06:00 +26°C° 0.1 mm 1 mps 757 mmHg 80%
    07:00 +27°C° 0.1 mm 1 mps 757 mmHg 76%
    08:00 +28°C° 0 mm 2 mps 757 mmHg 69%
    09:00 +30°C° 0 mm 2 mps 756 mmHg 63%
    10:00 +31°C° 0 mm 2 mps 756 mmHg 56%
    11:00 +33°C° 0.1 mm 3 mps 756 mmHg 55%
    12:00 +33°C° 0.1 mm 3 mps 755 mmHg 53%
    13:00 +34°C° 0.1 mm 3 mps 755 mmHg 51%
    14:00 +33°C° 0.1 mm 4 mps 754 mmHg 53%
    15:00 +33°C° 0.1 mm 4 mps 754 mmHg 55%
    16:00 +32°C° 0.1 mm 5 mps 753 mmHg 57%
    17:00 +30°C° 0 mm 4 mps 754 mmHg 64%
    18:00 +28°C° 0 mm 4 mps 754 mmHg 71%
    19:00 +27°C° 0 mm 3 mps 755 mmHg 77%
    20:00 +26°C° 0 mm 3 mps 755 mmHg 81%
    21:00 +26°C° 0 mm 2 mps 756 mmHg 84%
    22:00 +25°C° 0 mm 2 mps 756 mmHg 88%
    23:00 +25°C° 0 mm 2 mps 756 mmHg 88%

    Day after tomorrow, 15 December, Sunday

    Time Temperature Precipitation Wind Pressure Humidity
    00:00 +25°C° 0 mm 2 mps 756 mmHg 89%
    01:00 +25°C° 0 mm 2 mps 755 mmHg 89%
    02:00 +24°C° 0 mm 2 mps 755 mmHg 89%
    03:00 +24°C° 0 mm 2 mps 755 mmHg 89%
    04:00 +24°C° 0 mm 2 mps 755 mmHg 89%
    05:00 +25°C° 0 mm 2 mps 756 mmHg 84%
    06:00 +26°C° 0 mm 2 mps 756 mmHg 78%
    07:00 +27°C° 0 mm 1 mps 756 mmHg 72%
    08:00 +30°C° 0 mm 2 mps 756 mmHg 62%
    09:00 +34°C° 0 mm 2 mps 756 mmHg 51%
    10:00 +36°C° 0 mm 2 mps 756 mmHg 41%
    11:00 +36°C° 0 mm 3 mps 755 mmHg 40%
    12:00 +37°C° 0 mm 3 mps 755 mmHg 40%
    13:00 +37°C° 0 mm 4 mps 754 mmHg 39%
    14:00 +36°C° 0 mm 5 mps 754 mmHg 44%
    15:00 +35°C° 0 mm 5 mps 753 mmHg 50%
    16:00 +33°C° 0 mm 6 mps 753 mmHg 55%
    17:00 +32°C° 0 mm 6 mps 753 mmHg 61%
    18:00 +29°C° 0 mm 5 mps 753 mmHg 68%
    19:00 +28°C° 0 mm 5 mps 754 mmHg 74%
    20:00 +27°C° 0 mm 4 mps 754 mmHg 76%
    21:00 +27°C° 0 mm 3 mps 755 mmHg 79%
    22:00 +26°C° 0 mm 3 mps 756 mmHg 81%
    23:00 +26°C° 0 mm 2 mps 755 mmHg 82%

    16 December, Monday

    Time Temperature Precipitation Wind Pressure Humidity
    00:00 +26°C° 0 mm 2 mps 755 mmHg 82%
    01:00 +25°C° 0 mm 2 mps 755 mmHg 83%
    02:00 +25°C° 0 mm 2 mps 755 mmHg 84%
    03:00 +25°C° 0 mm 2 mps 755 mmHg 85%
    04:00 +24°C° 0 mm 1 mps 754 mmHg 86%
    05:00 +26°C° 0 mm 2 mps 755 mmHg 80%
    06:00 +27°C° 0 mm 2 mps 755 mmHg 73%
    07:00 +28°C° 0 mm 2 mps 756 mmHg 67%
    08:00 +31°C° 0 mm 2 mps 755 mmHg 54%
    09:00 +36°C° 0 mm 2 mps 755 mmHg 41%
    10:00 +39°C° 0 mm 2 mps 755 mmHg 28%
    11:00 +40°C° 0 mm 2 mps 754 mmHg 24%
    12:00 +42°C° 0 mm 2 mps 754 mmHg 20%
    13:00 +43°C° 0 mm 2 mps 753 mmHg 15%
    14:00 +43°C° 0 mm 3 mps 753 mmHg 20%
    15:00 +41°C° 0 mm 4 mps 753 mmHg 24%
    16:00 +40°C° 0 mm 5 mps 752 mmHg 28%
    17:00 +36°C° 0 mm 5 mps 753 mmHg 36%
    18:00 +34°C° 0 mm 5 mps 755 mmHg 43%
    19:00 +30°C° 0 mm 6 mps 756 mmHg 50%
    20:00 +29°C° 0 mm 5 mps 757 mmHg 55%
    21:00 +27°C° 0 mm 5 mps 758 mmHg 60%
    22:00 +26°C° 0 mm 5 mps 759 mmHg 64%
    23:00 +25°C° 0 mm 5 mps 759 mmHg 67%

    17 December, Tuesday

    Time Temperature Precipitation Wind Pressure Humidity
    00:00 +25°C° 0 mm 5 mps 759 mmHg 70%
    01:00 +25°C° 0 mm 5 mps 759 mmHg 72%
    02:00 +23°C° 0 mm 5 mps 759 mmHg 72%
    03:00 +23°C° 0 mm 5 mps 759 mmHg 71%
    04:00 +22°C° 0 mm 5 mps 759 mmHg 71%
    05:00 +23°C° 0 mm 5 mps 760 mmHg 67%
    06:00 +23°C° 0 mm 5 mps 760 mmHg 64%
    07:00 +25°C° 0 mm 5 mps 761 mmHg 60%
    08:00 +26°C° 0 mm 5 mps 761 mmHg 55%
    09:00 +28°C° 0 mm 6 mps 761 mmHg 49%
    10:00 +29°C° 0 mm 6 mps 761 mmHg 44%
    11:00 +29°C° 0 mm 6 mps 761 mmHg 43%
    12:00 +30°C° 0 mm 7 mps 761 mmHg 42%
    13:00 +30°C° 0 mm 7 mps 760 mmHg 41%
    14:00 +29°C° 0 mm 7 mps 760 mmHg 42%
    15:00 +28°C° 0 mm 7 mps 760 mmHg 44%
    16:00 +28°C° 0 mm 6 mps 760 mmHg 45%
    17:00 +26°C° 0 mm 6 mps 760 mmHg 50%
    18:00 +25°C° 0 mm 5 mps 761 mmHg 56%
    19:00 +22°C° 0 mm 5 mps 762 mmHg 61%
    20:00 +22°C° 0 mm 5 mps 762 mmHg 65%
    21:00 +21°C° 0 mm 4 mps 762 mmHg 68%
    22:00 +21°C° 0 mm 4 mps 763 mmHg 72%
    23:00 +20°C° 0 mm 4 mps 762 mmHg 74%

    18 December, Wednesday

    Time Temperature Precipitation Wind Pressure Humidity
    00:00 +20°C° 0 mm 3 mps 762 mmHg 76%
    01:00 +19°C° 0 mm 3 mps 762 mmHg 78%
    02:00 +19°C° 0 mm 3 mps 762 mmHg 78%
    03:00 +19°C° 0 mm 3 mps 762 mmHg 78%
    04:00 +19°C° 0 mm 3 mps 762 mmHg 79%
    05:00 +20°C° 0 mm 3 mps 762 mmHg 73%
    06:00 +21°C° 0 mm 3 mps 763 mmHg 68%
    07:00 +22°C° 0 mm 3 mps 763 mmHg 62%
    08:00 +25°C° 0 mm 3 mps 763 mmHg 56%
    09:00 +26°C° 0 mm 4 mps 763 mmHg 50%
    10:00 +28°C° 0 mm 4 mps 763 mmHg 44%
    11:00 +29°C° 0 mm 4 mps 762 mmHg 41%
    12:00 +29°C° 0 mm 4 mps 762 mmHg 38%
    13:00 +30°C° 0 mm 4 mps 761 mmHg 35%
    14:00 +30°C° 0 mm 4 mps 761 mmHg 36%
    15:00 +29°C° 0 mm 4 mps 761 mmHg 38%
    16:00 +28°C° 0 mm 4 mps 760 mmHg 40%
    17:00 +27°C° 0 mm 4 mps 761 mmHg 47%
    18:00 +25°C° 0 mm 3 mps 761 mmHg 54%
    19:00 +22°C° 0 mm 3 mps 762 mmHg 61%
    20:00 +23°C° 0 mm 2 mps 762 mmHg 65%
    21:00 +21°C° 0 mm 2 mps 762 mmHg 68%
    22:00 +21°C° 0 mm 2 mps 763 mmHg 71%
    23:00 +20°C° 0 mm 2 mps 762 mmHg 73%
    Show more